Location: Newark
(45.4422°N, 16.2769°E)
Time: 00:16:26
(UTC+00:00)

Tiros 1 despin weight - Pass Details

Date: 24 December 2019
Orbit: 594 x 642 km, 48.2° (Epoch: 27 January)

Event Time Altitude Azimuth Distance (km) Brightness Sun altitude
Rises 22:49:03 0° 237° (WSW) 2,931 - -67.9°
Reaches altitude 10° 22:51:23 10° 235° (SW) 2,020 - -68.0°
Maximum altitude 22:56:00 64° 154° (SSE) 699 - -68.0°
Drops below altitude 10° 23:00:34 10° 73° (ENE) 2,002 - -67.9°
Sets 23:02:53 0° 70° (ENE) 2,903 - -67.9°
